This is the latest recevied weather packets stored in our database for station/object DG3OBU-6. If no packets are shown the sender has not sent any weather packets the latest 10 day(s).
| Time | Temp. | Humidity | Pressure | Rain* | Wind** | Luminosity | Snow |
|---|---|---|---|---|---|---|---|
| 1777859402 | 13.33° C | 85% | 1010.4 hPa | 0 mm | - | - | - |
| 1777859102 | 12.78° C | 85% | 1010.4 hPa | 0 mm | - | - | - |
| 1777858802 | 12.78° C | 85% | 1010.3 hPa | 0 mm | - | - | - |
| 1777858203 | 12.78° C | 84% | 1010.4 hPa | 0 mm | - | - | - |
| 1777857902 | 12.22° C | 84% | 1010.4 hPa | 0 mm | - | - | - |
| 1777857602 | 12.22° C | 84% | 1010.3 hPa | 0 mm | - | - | - |
| 1777857302 | 12.78° C | 84% | 1010.3 hPa | 0 mm | - | - | - |
| 1777857002 | 12.78° C | 83% | 1010.2 hPa | 0 mm | - | - | - |
| 1777856702 | 12.78° C | 83% | 1010 hPa | 0 mm | - | - | - |
| 1777856403 | 12.78° C | 83% | 1010 hPa | 0 mm | - | - | - |
| 1777856102 | 12.78° C | 83% | 1009.9 hPa | 0 mm | - | - | - |
| 1777855802 | 13.33° C | 82% | 1010.1 hPa | 0 mm | - | - | - |
| 1777855502 | 13.33° C | 82% | 1010 hPa | 0 mm | - | - | - |
| 1777855203 | 13.33° C | 82% | 1010.2 hPa | 0 mm | - | - | - |
| 1777854903 | 13.33° C | 82% | 1010.4 hPa | 0 mm | - | - | - |
| 1777854603 | 13.33° C | 81% | 1010.3 hPa | 0 mm | - | - | - |
| 1777854303 | 13.33° C | 81% | 1010.3 hPa | 0 mm | - | - | - |
| 1777854003 | 13.33° C | 80% | 1010.3 hPa | 0 mm | - | - | - |
| 1777853703 | 13.89° C | 80% | 1010.2 hPa | 0 mm | - | - | - |
| 1777853402 | 14.44° C | 81% | 1010.2 hPa | 0 mm | - | - | - |
| 1777853102 | 14.44° C | 81% | 1010.2 hPa | 0 mm | - | - | - |
| 1777852803 | 14.44° C | 81% | 1010.2 hPa | 0 mm | - | - | - |
| 1777852502 | 14.44° C | 80% | 1010.1 hPa | 0 mm | - | - | - |
| 1777852202 | 14.44° C | 80% | 1010.1 hPa | 0 mm | - | - | - |
| 1777851902 | 14.44° C | 80% | 1010.1 hPa | 0 mm | - | - | - |
* Rain latest hour (hover to see other rain measurements)
** Current wind speed in m/s (hover to see current wind gust speed)